Weather History for Pratt, KS

Change the Weather History Date:

Friday, July 12, 2013

  Actual Average (KP28) Record (KP28)
Temperature  
Mean Temperature 84 °F 82 °F  
Max Temperature 98 °F 95 °F 110 °F (1954)
Min Temperature 71 °F 70 °F 50 °F (1975)
Degree Days  
Heating Degree Days 0 0  
Month to date heating degree days 0  
Since 1 June heating degree days 3  
Since 1 July heating degree days 0  
Cooling Degree Days 20 17  
Month to date cooling degree days 196  
Year to date cooling degree days 705  
Since 1 June cooling degree days 549  
Growing Degree Days 34 (Base 50)    
Moisture  
Dew Point 61 °F    
Average Humidity 47    
Maximum Humidity 78    
Minimum Humidity 24    
Precipitation  
Precipitation 0.00 in 0.11 in 1.91 in (2007)
Month to date precipitation 1.40  
Year to date precipitation 15.25  
Snow  
Snow 0.00 in 0.00 in - ()
Month to date snowfall 0.0  
Since 1 June snowfall 0.0  
Since 1 July snowfall 0.0  
Snow Depth -    
Sea Level Pressure  
Sea Level Pressure 29.97 in    
Wind  
Wind Speed 11 mph (SSE)    
Max Wind Speed 20 mph    
Max Gust Speed 29 mph    
Visibility 10 miles    
Events      
T = Trace of Precipitation, MM = Missing Value Source: NWS Daily Summary

Daily Weather History Graph

Daily Weather History Graph

Search for Another Location

Airport:

Trip Planner

Search our weather history database for the weather conditions in past years. The results will help you decide how hot, cold, wet, or windy it might be!

Date:

Astronomy

Jul. 12, 2013 Rise Set
Actual Time 6:23 AM CDT 8:57 PM CDT
Civil Twilight 5:52 AM CDT 9:28 PM CDT
Nautical Twilight 5:14 AM CDT 10:06 PM CDT
Astronomical Twilight 4:32 AM CDT 10:48 PM CDT
Moon 10:36 AM CDT (7/12) 11:15 PM CDT (7/12)
Length of Visible Light 15h 35m
Length of Day
14h 34m
Waxing Crescent, 17% of the Moon is Illuminated
Jul 12
Waxing Crescent
Jul 15
First Quarter
Jul 22
Full
Jul 29
Last Quarter
Aug 6
New

Hourly Weather History & Observations

Time (CDT) Temp. Heat Index Dew Point Humidity Pressure Visibility Wind Dir Wind Speed Gust Speed Precip Events Conditions
12:15 AM 80.6 °F 81.8 °F 62.6 °F 54% 30.00 in 10.0 mi SE 9.2 mph - N/A   Clear
12:35 AM 78.8 °F - 62.6 °F 57% 30.00 in 10.0 mi SE 6.9 mph - N/A   Clear
12:55 AM 77.0 °F - 64.4 °F 65% 30.00 in 10.0 mi ESE 5.8 mph - N/A   Clear
1:15 AM 77.0 °F - 64.4 °F 65% 30.00 in 10.0 mi ESE 8.1 mph - N/A   Clear
1:35 AM 77.0 °F - 64.4 °F 65% 30.00 in 10.0 mi ESE 6.9 mph - N/A   Clear
1:55 AM 77.0 °F - 64.4 °F 65% 30.00 in 10.0 mi SE 8.1 mph - N/A   Clear
2:15 AM 75.2 °F - 64.4 °F 69% 30.00 in 10.0 mi SE 8.1 mph - N/A   Clear
2:35 AM 75.2 °F - 64.4 °F 69% 29.99 in 10.0 mi SE 6.9 mph - N/A   Clear
2:55 AM 73.4 °F - 64.4 °F 73% 29.99 in 10.0 mi ESE 6.9 mph - N/A   Clear
3:15 AM 73.4 °F - 64.4 °F 73% 29.99 in 10.0 mi SE 6.9 mph - N/A   Clear
3:35 AM 73.4 °F - 64.4 °F 73% 29.98 in 10.0 mi ESE 6.9 mph - N/A   Clear
3:55 AM 73.4 °F - 64.4 °F 73% 29.98 in 10.0 mi SE 6.9 mph - N/A   Clear
4:15 AM 73.4 °F - 64.4 °F 73% 29.98 in 10.0 mi SSE 8.1 mph - N/A   Clear
4:35 AM 71.6 °F - 64.4 °F 78% 29.99 in 10.0 mi SE 5.8 mph - N/A   Clear
4:55 AM 71.6 °F - 64.4 °F 78% 29.99 in 10.0 mi SE 5.8 mph - N/A   Clear
5:15 AM 71.6 °F - 64.4 °F 78% 29.99 in 10.0 mi SSE 3.5 mph - N/A   Clear
5:35 AM 71.6 °F - 64.4 °F 78% 29.98 in 10.0 mi SSE 3.5 mph - N/A   Clear
5:55 AM 71.6 °F - 64.4 °F 78% 29.98 in 10.0 mi South 5.8 mph - N/A   Clear
6:15 AM 71.6 °F - 64.4 °F 78% 29.98 in 10.0 mi South 8.1 mph - N/A   Clear
6:35 AM 71.6 °F - 64.4 °F 78% 29.98 in 10.0 mi South 6.9 mph - N/A   Clear
6:55 AM 71.6 °F - 64.4 °F 78% 29.98 in 10.0 mi South 6.9 mph - N/A   Clear
7:15 AM 73.4 °F - 64.4 °F 73% 29.99 in 10.0 mi South 6.9 mph - N/A   Clear
7:35 AM 75.2 °F - 64.4 °F 69% 29.99 in 10.0 mi South 9.2 mph - N/A   Clear
7:55 AM 77.0 °F - 64.4 °F 65% 29.99 in 10.0 mi South 10.4 mph - N/A   Clear
8:15 AM 77.0 °F - 64.4 °F 65% 29.99 in 10.0 mi South 11.5 mph - N/A   Clear
8:35 AM 78.8 °F - 64.4 °F 61% 30.00 in 10.0 mi South 13.8 mph - N/A   Clear
8:55 AM 80.6 °F 82.3 °F 64.4 °F 58% 30.00 in 10.0 mi South 15.0 mph - N/A   Clear
9:15 AM 82.4 °F 83.9 °F 64.4 °F 54% 30.00 in 10.0 mi SSW 12.7 mph - N/A   Clear
9:35 AM 82.4 °F 83.9 °F 64.4 °F 54% 30.00 in 10.0 mi SSW 13.8 mph - N/A   Clear
9:55 AM 86.0 °F 87.3 °F 64.4 °F 48% 30.00 in 10.0 mi SSW 15.0 mph - N/A   Clear
10:15 AM 86.0 °F 86.6 °F 62.6 °F 45% 29.99 in 10.0 mi SSW 13.8 mph - N/A   Clear
10:35 AM 87.8 °F 88.5 °F 62.6 °F 43% 30.00 in 10.0 mi SSW 15.0 mph 20.7 mph N/A   Clear
10:55 AM 89.6 °F 90.1 °F 62.6 °F 40% 29.99 in 10.0 mi South 15.0 mph 20.7 mph N/A   Clear
11:15 AM 91.4 °F 92.1 °F 62.6 °F 38% 29.99 in 10.0 mi South 15.0 mph 24.2 mph N/A   Clear
11:35 AM 91.4 °F 91.4 °F 60.8 °F 36% 29.99 in 10.0 mi South 17.3 mph 21.9 mph N/A   Clear
11:55 AM 91.4 °F 91.4 °F 60.8 °F 36% 29.99 in 10.0 mi SSW 15.0 mph 23.0 mph N/A   Clear
12:15 PM 95.0 °F 95.2 °F 60.8 °F 32% 29.99 in 10.0 mi SSW 16.1 mph 20.7 mph N/A   Clear
12:35 PM 95.0 °F 94.4 °F 59.0 °F 30% 29.98 in 10.0 mi South 12.7 mph - N/A   Clear
12:55 PM 95.0 °F 95.2 °F 60.8 °F 32% 29.98 in 10.0 mi South 9.2 mph 23.0 mph N/A   Clear
1:15 PM 95.0 °F 94.4 °F 59.0 °F 30% 29.97 in 10.0 mi SSE 15.0 mph 19.6 mph N/A   Clear
1:35 PM 96.8 °F 96.2 °F 59.0 °F 28% 29.96 in 10.0 mi SSE 15.0 mph 24.2 mph N/A   Clear
1:55 PM 96.8 °F 96.2 °F 59.0 °F 28% 29.96 in 10.0 mi South 15.0 mph 24.2 mph N/A   Scattered Clouds
2:15 PM 96.8 °F 95.8 °F 57.2 °F 27% 29.96 in 10.0 mi South 15.0 mph 25.3 mph N/A   Scattered Clouds
2:35 PM 98.6 °F 98.5 °F 59.0 °F 27% 29.95 in 10.0 mi South 17.3 mph 23.0 mph N/A   Scattered Clouds
2:55 PM 96.8 °F 95.8 °F 57.2 °F 27% 29.94 in 10.0 mi South 12.7 mph 24.2 mph N/A   Scattered Clouds
3:15 PM 98.6 °F 97.6 °F 57.2 °F 25% 29.94 in 10.0 mi South 15.0 mph 25.3 mph N/A   Clear
3:35 PM 98.6 °F 97.6 °F 57.2 °F 25% 29.94 in 10.0 mi South 15.0 mph 24.2 mph N/A   Clear
3:55 PM 98.6 °F 97.2 °F 55.4 °F 24% 29.93 in 10.0 mi South 13.8 mph 21.9 mph N/A   Clear
4:15 PM 98.6 °F 97.2 °F 55.4 °F 24% 29.93 in 10.0 mi South 18.4 mph 24.2 mph N/A   Scattered Clouds
4:35 PM 98.6 °F 97.6 °F 57.2 °F 25% 29.93 in 10.0 mi South 19.6 mph 23.0 mph N/A   Scattered Clouds
4:55 PM 98.6 °F 97.2 °F 55.4 °F 24% 29.92 in 10.0 mi SSE 16.1 mph 23.0 mph N/A   Scattered Clouds
5:15 PM 98.6 °F 97.2 °F 55.4 °F 24% 29.92 in 10.0 mi SSE 16.1 mph 24.2 mph N/A   Scattered Clouds
5:35 PM 98.6 °F 97.2 °F 55.4 °F 24% 29.91 in 10.0 mi South 15.0 mph 28.8 mph N/A   Scattered Clouds
5:55 PM 96.8 °F 95.1 °F 55.4 °F 25% 29.91 in 10.0 mi South 15.0 mph 25.3 mph N/A   Clear
6:15 PM 96.8 °F 95.1 °F 55.4 °F 25% 29.91 in 10.0 mi SSE 18.4 mph 24.2 mph N/A   Clear
6:35 PM 96.8 °F 95.1 °F 55.4 °F 25% 29.91 in 10.0 mi SSE 17.3 mph 24.2 mph N/A   Scattered Clouds
6:55 PM 96.8 °F 95.1 °F 55.4 °F 25% 29.91 in 10.0 mi SSE 15.0 mph 25.3 mph N/A   Clear
7:15 PM 96.8 °F 95.1 °F 55.4 °F 25% 29.91 in 10.0 mi SSE 17.3 mph 25.3 mph N/A   Clear
7:35 PM 95.0 °F 93.0 °F 55.4 °F 26% 29.92 in 10.0 mi SSE 17.3 mph 23.0 mph N/A   Clear
7:55 PM 95.0 °F 93.0 °F 55.4 °F 26% 29.92 in 10.0 mi SSE 16.1 mph 21.9 mph N/A   Clear
8:15 PM 93.2 °F 91.3 °F 55.4 °F 28% 29.93 in 10.0 mi SSE 13.8 mph 19.6 mph N/A   Clear
8:35 PM 91.4 °F 89.9 °F 57.2 °F 31% 29.93 in 10.0 mi SSE 15.0 mph - N/A   Clear
8:55 PM 91.4 °F 89.4 °F 55.4 °F 29% 29.93 in 10.0 mi SSE 15.0 mph 19.6 mph N/A   Clear
9:15 PM 89.6 °F 88.9 °F 59.0 °F 36% 29.94 in 10.0 mi SSE 13.8 mph 20.7 mph N/A   Clear
9:35 PM 89.6 °F 88.9 °F 59.0 °F 36% 29.95 in 10.0 mi SSE 13.8 mph 20.7 mph N/A   Clear
9:55 PM 87.8 °F 87.6 °F 60.8 °F 40% 29.95 in 10.0 mi SSE 15.0 mph - N/A   Clear
10:15 PM 87.8 °F 87.6 °F 60.8 °F 40% 29.97 in 10.0 mi SSE 11.5 mph 17.3 mph N/A   Clear
10:35 PM 86.0 °F 86.6 °F 62.6 °F 45% 29.97 in 10.0 mi SSE 12.7 mph - N/A   Clear
10:55 PM 86.0 °F 86.6 °F 62.6 °F 45% 29.98 in 10.0 mi SSE 15.0 mph 20.7 mph N/A   Clear
11:15 PM 86.0 °F 86.6 °F 62.6 °F 45% 29.98 in 10.0 mi SSE 17.3 mph 21.9 mph N/A   Clear
11:35 PM 84.2 °F 85.6 °F 64.4 °F 51% 29.99 in 10.0 mi SSE 15.0 mph - N/A   Clear
11:55 PM 84.2 °F 85.6 °F 64.4 °F 51% 29.99 in 10.0 mi SSE 16.1 mph - N/A   Clear